Regional Weather Roundup
Issued by NWS

Home | Current Version | Previous Version | Text Only | Print | Product List | Glossary On
Versions: 1 2 3 4 5 6 7 8 9 10 11 12 13 14 15 16 17 18 19 20 21 22 23 24 25 26 27 28 29 30 31 32 33 34 35 36 37 38 39 40 41 42 43 44 45 46 47 48 49 50
000
ASUS44 KLUB 050901
RWRTX
WEST TEXAS WEATHER ROUNDUP
NATIONAL WEATHER SERVICE LUBBOCK TX
400 AM CDT TUE MAY 05 2015

NOTE: "FAIR" INDICATES FEW OR NO CLOUDS BELOW 12,000 FEET WITH NO
SIGNIFICANT WEATHER AND/OR OBSTRUCTIONS TO VISIBILITY.

TXZ004-006>008-010-012-014-016-OKZ002-051000-
TEXAS PANHANDLE/OKLAHOMA PANHANDLE

CITY           SKY/WX    TMP DP  RH WIND       PRES   REMARKS
AMARILLO       RAIN      56  54  93 SE8       29.93F
BORGER         RAIN      60  57  89 NE5       29.96S FOG
DALHART        LGT RAIN  55  53  93 S8        29.98S
GUYMON         LGT RAIN  59  58  96 E7        29.96F FOG
$$

TXZ026-029-035-045-048-051000-
SOUTHERN PANHANDLE/SOUTH PLAINS/ROLLING PLAINS

CITY           SKY/WX    TMP DP  RH WIND       PRES   REMARKS
CHILDRESS      LGT RAIN  64  60  87 SE16      29.92F
LUBBOCK        RAIN      58  56  93 SE15      29.90R FOG
$$

TXZ052-054-060>062-072-078-127-140-154-169-051000-
PERMIAN BASIN/CONCHO VALLEY/BIG COUNTRY/EDWARDS PLATEAU

CITY           SKY/WX    TMP DP  RH WIND       PRES   REMARKS
ABILENE        CLOUDY    67  58  72 SE18G25   29.91F
JUNCTION       MOCLDY    68  61  78 SE13G18   29.93F
MIDLAND        CLOUDY    65  60  84 SE15      29.85F
ODESSA         CLOUDY    65  60  84 SE17      29.86S
SAN ANGELO     CLOUDY    69  58  67 SE17G23   29.88S
SWEETWATER     CLOUDY    65  60  81 SE13      29.94F
WINK           CLOUDY    67  61  81 SE18G25   29.79F
$$

TXZ055-058-074-075-080-082-051000-
FAR WEST/SOUTHWEST MOUNTAINS/TRANS PECOS

CITY           SKY/WX    TMP DP  RH WIND       PRES   REMARKS
DRYDEN           N/A     69  64  84 SE25G36   29.81F
EL PASO        PTCLDY    66  44  45 NW12      29.87F
FORT STOCKTON  CLOUDY    66  61  84 S14       29.84R
MARFA          CLEAR     57  55  94 S6        29.93S
$$

TXZ014-016-019-021>030-083-051000
TEXAS TECH WEST TEXAS MESONET/TEXAS PANHANDLE/NORTHERN SOUTH PLAINS

CITY           SKY/WX    TMP DP  RH WIND       PRES   REMARKS
ABERNATHY 5ENE   N/A     57  56  94 S7        29.90F
AMARILLO 9NNE  LGT RAIN  56  55  94 SE2       29.93F
AMARILLO 7SSE    N/A     56  55  95 SE10      29.93F
AMHERST 1NE      N/A     55  55  97 N6        29.90F
BOOTLEG 11WNW    N/A     52  51  97 SW3       29.98F
CANADIAN 6E      N/A     65  57  76 SE15      29.94S
CAPROCK CYN SP LGT RAIN  61  60  96 NE16      29.86F
CHILDRESS 2NNE   N/A     64  59  85 SE16      29.92S
CLARENDON 2WSW RAIN      60  58  92 E2        29.93F
CLAUDE 12SW      N/A     56  56  97 SW3       29.92F
DIMMITT 2NE      N/A     55  54  95 E8        29.91S
FLOYDADA 2NNE    N/A     57  56  98 S13       29.88R
FRIONA 2NE       N/A     53  52  94 W5        29.95S
GOODLETT 3W      N/A     65  58  78 SE14      29.91S
HART 3N          N/A     56  55  95 NE7       29.90S
HEREFORD 2NW     N/A     54  52  90 NW3       29.92F
MCLEAN 1E        N/A     60  59  96 SE12      29.93F
MEMPHIS 1NE      N/A     63  61  94 E6        29.92S
MULESHOE 2SSW    N/A     54  53  96 W6        29.93S
OLTON 6S         N/A     56  55  94 NE3       29.89F
PALO DURO SP     N/A     56  55  94 S2        29.94F
PAMPA 2E       RAIN      57  57  98 N5        29.96F
PLAINVIEW 1S     N/A     60  58  94 S7        29.88F
SILVERTON 7ESE LGT RAIN  60  59  97 E12       29.89F
TULIA 2ENE       N/A     57  56  98 NE6       29.89F
TURKEY 2WSW    LGT RAIN  62  61  97 E25G35    29.85F
UMBARGER 3NNE    N/A     55  54  95 E13       29.90F
$$

TXZ033>036-039>041-045>048-051000
TEXAS TECH WEST TEXAS MESONET/SOUTH PLAINS

CITY           SKY/WX    TMP DP  RH WIND       PRES   REMARKS
AIKEN 3WSW       N/A     60  58  94 S14       29.89R
ANDREWS 2NE      N/A     63  60  90 SE15      29.87R
ANTON 6SSW       N/A     57  56  96 NE3       29.89F
BROWNFIELD 2S    N/A     58  56  94 E7        29.89S
DENVR CTY 7WNW RAIN      57  56  96 NE10      29.86F
LAMESA 2SE       N/A     58  58  98 E9        29.89F
LEVELLAND 4S     N/A     58  55  92 NE8       29.89F
LUBBOCK 3WNW     N/A     58  57  96 SE9       29.90F
MORTON 1ENE      N/A     55  55  99 N6        29.90F
ODONNELL 1N      N/A     58  56  94 SE9       29.89F
PLAINS 3N      RAIN      56  55  96 NE12      29.88F
RALLS 1SE        N/A     57  56  98 SE12      29.91R
REESE CENTER     N/A     59  58  96 E8        29.89F
SEAGRAVES 1SW    N/A     58  57  98 E12       29.85F
SEMINOLE 2NNE    N/A     60  59  96 E18       29.84F
SLATON 2NE       N/A     57  56  98 SE8       29.90S
SNYDER 3E        N/A     58  58  97 NW8       29.94R
SUNDOWN 8SW    RAIN      57  56  96 NE9       29.88F
TAHOKA 3NNE      N/A     58  58  99 SE3       29.89F
WOLFFORTH 6SSW   N/A     59  59  98 SE9       29.90S
$$

TXZ031-032-036>038-042>044-051000-
TEXAS TECH WEST TEXAS MESONET/ROLLING PLAINS

CITY           SKY/WX    TMP DP  RH WIND       PRES   REMARKS
ASPERMONT 3NE  LGT RAIN  64  62  93 W9        29.95R
FLUVANNA 3WNW    N/A     57  56  95 E9        29.90F
GRAHAM 5SSW      N/A     58  57  97 E9        29.89F
GUTHRIE 10WSW  LGT RAIN  59  57  93 SE9       29.93F
HASKELL 1NW      N/A     66  58  75 SE8       29.91F
JAYTON 1SSE    RAIN      59  58  96 E7        29.93F
KNOX CITY 3NW    N/A     66  58  75 SE7       29.94R
LK A HENRY 1NW   N/A     59  58  97 SE9       29.92R
NORTHFIELD 1S  LGT RAIN  63  62  96 SE20      29.91F
ODELL 4ENE       N/A     67  55  65 SE13      29.94F
PADUCAH 10SW   LGT RAIN  62  60  94 SE18      29.91F
POST 1NE       LGT RAIN  58  57  96 SE12      29.90F
SEYMOUR 3NW      N/A     67  56  68 E12       29.93F
SPUR 1W        LGT RAIN  59  57  95 SE10      29.91S
WEINERT 2NNE     N/A     65  60  82 E10       29.92F
WHITE RVR 6NE    N/A     58  57  97 SE13      29.91R
$$

TXZ052-054-060>062-072-078-127-140-154-169-051000-
TEXAS TECH WEST TEXAS MESONET/PERMIAN BASIN/
CONCHO VALLEY/BIG COUNTRY/EDWARDS PLATEAU

CITY           SKY/WX    TMP DP  RH WIND       PRES   REMARKS
COYANOSA 2N      N/A     67  62  82 SE9       29.82S
JUNCTION 1SSW    N/A     67  61  80 S5        29.93F
MERTZON 3NNE     N/A     68  58  71 SE10      29.88F
SAN ANGELO 7NW   N/A     68  57  68 SE17      29.89S
STRLNG CT 4WSW   N/A     67  57  70 E15       29.89F
ST LAWRNCE 5SW   N/A     66  58  75 SE23      29.86S
SWEETWATR 11SW   N/A     64  59  86 SE14      29.92S
WALL 1E          N/A     68  58  70 SE20      29.90F
$$

TXZ055-058-074-075-080-082-051000-
TEXAS TECH WEST TEXAS MESONET/FAR WEST/SOUTHWEST MOUNTAINS/TRANS PECOS

CITY           SKY/WX    TMP DP  RH WIND       PRES   REMARKS
PRSMN GAP BBNP   N/A     66  62  86 N14       29.81F
$$


USA.gov is the U.S. government's official web portal to all federal, state and local government web resources and services.